Wind_Speed
19 19 19 20 20 19 18 19 19 18 18 17 17 18 17 17 18 18 19 19 17 17 18 19 20 20 22 23 25 27 29 31 33 35 37 39 41 42 40 39 43 46 49 58 56
20 19 20 20 21 22 21 19 19 18 18 18 19 19 19 18 19 20 20 18 18 19 19 20 21 22 24 25 26 28 29 33 36 38 40 41 39 40 44 43 46 49 53 56 57
21 20 20 21 22 23 25 24 21 21 19 18 19 20 21 20 20 20 20 19 18 20 21 21 22 23 25 26 28 29 32 35 37 41 41 39 39 40 46 46 47 50 52 57 61
22 21 21 23 24 23 24 26 26 26 24 22 20 21 22 21 21 20 19 21 19 20 22 22 24 25 27 28 29 30 34 37 39 41 38 38 41 44 45 46 51 56 60 64 69
25 25 25 25 26 25 24 24 27 29 27 25 23 22 21 22 22 21 21 21 21 21 22 23 24 26 27 29 31 33 35 38 40 41 36 40 41 45 44 50 53 62 66 72 78
29 28 27 27 27 27 27 25 25 27 27 27 26 25 22 23 23 23 22 21 21 22 24 24 25 27 29 30 32 34 36 39 41 39 35 39 42 42 47 53 60 67 70 77 80
32 32 31 29 29 28 26 25 25 27 30 30 29 28 25 25 24 23 23 21 21 22 24 26 26 28 30 32 33 35 37 39 37 34 38 41 44 43 51 57 65 68 76 76 83
34 35 35 34 34 32 31 31 30 30 32 32 32 30 27 26 25 25 23 23 22 22 25 27 28 29 31 33 35 36 39 39 38 32 38 42 45 52 55 60 64 68 72 73 67
37 37 38 39 38 37 36 36 36 34 33 32 32 30 28 27 26 25 24 24 24 23 26 27 29 29 31 33 35 37 39 36 34 34 39 45 49 55 57 62 64 66 67 61 50
44 43 42 43 43 42 42 40 40 39 38 35 32 29 29 28 28 26 26 24 25 25 27 28 29 30 32 33 36 40 41 37 37 40 42 46 50 54 59 63 64 64 60 50 44
40 42 42 42 45 46 46 46 47 46 42 40 34 33 31 30 30 28 26 26 26 26 27 28 30 31 32 33 36 40 42 40 38 39 41 44 48 55 58 61 61 57 52 42 43
39 38 37 33 33 36 38 37 39 41 36 35 34 35 34 33 32 31 28 26 25 26 28 29 31 32 33 34 38 41 42 41 40 38 41 44 48 52 57 60 60 52 44 37 41
37 34 32 33 33 35 35 34 33 35 36 27 28 29 31 31 30 29 27 25 26 26 28 29 31 32 33 35 40 42 43 43 41 37 38 45 47 53 57 58 57 49 40 35 37
38 38 38 38 38 38 37 36 33 33 37 31 31 30 30 30 29 28 29 24 23 25 28 29 31 32 33 35 42 45 45 44 39 35 39 43 47 54 57 57 54 48 40 33 33
44 44 45 46 45 43 41 39 34 30 38 31 28 25 26 26 26 28 24 22 23 25 28 28 30 32 33 37 42 46 48 44 35 33 37 41 48 54 55 57 54 47 39 31 28
42 43 45 46 42 41 40 39 36 33 35 30 27 26 27 27 27 26 23 22 25 26 28 29 30 31 32 37 42 46 46 37 33 33 35 40 47 51 54 56 53 45 35 27 23
33 34 37 37 36 37 33 33 35 35 32 29 25 24 27 29 30 25 21 21 24 26 27 28 29 30 31 37 40 44 39 34 37 39 36 38 45 46 49 55 51 41 29 23 20
26 26 28 31 32 35 34 35 31 30 30 28 28 29 29 25 23 21 22 22 23 23 26 27 26 29 30 35 42 39 34 35 40 41 35 35 43 43 48 56 49 32 23 19 17
23 25 29 34 31 32 32 37 32 28 32 30 30 30 30 30 28 26 22 20 22 23 25 27 25 27 29 34 39 37 35 36 40 39 38 34 40 41 47 53 40 25 17 15 18
28 26 28 29 27 27 30 32 27 30 34 28 23 27 26 27 26 23 21 22 25 23 24 24 26 25 28 32 36 35 35 38 38 40 38 36 38 39 46 39 23 25 20 17 21
34 29 28 28 27 29 28 28 22 24 28 28 23 23 25 24 26 24 25 23 23 24 24 23 23 23 27 30 34 34 34 36 40 31 32 37 34 33 34 25 29 25 22 19 22
33 28 29 29 27 25 24 30 27 21 18 17 21 22 21 23 24 25 25 23 22 23 22 22 22 22 25 29 30 31 33 36 35 27 27 30 28 31 21 28 30 25 19 20 25
32 26 29 28 25 27 26 24 23 21 20 21 23 22 21 20 23 25 25 24 23 21 20 20 19 21 23 26 26 27 32 32 23 23 24 25 25 26 16 23 28 26 23 23 25
31 29 27 26 26 26 24 24 25 30 23 19 21 20 21 20 20 24 24 22 22 21 20 19 17 20 23 26 26 28 30 21 20 21 19 18 17 21 12 19 21 29 26 29 30
33 31 29 28 26 25 26 22 23 23 23 16 16 18 21 20 19 22 25 23 22 21 19 17 14 16 21 22 23 28 24 18 19 18 17 16 14 16 11 21 18 23 27 28 29
33 32 30 29 28 26 25 24 22 22 21 22 19 17 20 20 20 19 23 23 23 20 18 15 11 12 16 17 20 23 18 16 17 15 14 14 12 15 14 13 20 21 23 26 24
34 32 30 29 29 27 27 24 22 19 20 20 21 19 19 20 20 19 22 22 21 17 18 14 11 10 12 12 16 19 14 14 14 14 13 15 14 16 19 18 17 18 20 23 24
Wind_Direction
286 289 294 297 301 301 305 310 312 309 309 307 309 312 306 302 304 300 299 295 292 289 285 286 288 288 290 292 294 296 301 304 305 305 304 306 308 311 309 307 306 305 303 298 298
286 289 291 293 296 298 298 304 306 304 307 308 306 304 306 303 304 299 297 293 293 288 285 287 289 291 293 294 297 301 305 307 308 310 310 313 314 311 309 308 305 303 300 299 295
286 288 289 291 292 291 294 296 298 300 299 299 303 301 300 302 302 300 293 288 289 287 286 289 290 291 294 297 301 307 308 311 312 313 313 313 311 310 310 309 305 302 299 295 291
284 286 287 289 289 287 289 294 294 294 297 297 294 297 295 296 299 297 292 289 288 286 287 289 290 293 297 301 306 308 310 311 313 311 311 310 314 314 311 306 304 303 299 298 292
277 280 283 285 286 286 287 290 294 295 293 296 295 293 292 293 296 296 290 288 288 286 288 288 291 295 300 303 306 308 311 311 311 309 310 310 310 308 305 303 301 305 301 294 294
278 276 280 282 281 283 286 286 289 294 298 297 297 293 288 290 291 293 287 284 287 289 290 289 293 296 299 303 307 310 311 311 308 305 308 305 303 302 304 306 308 307 304 303 302
275 274 278 279 280 280 278 279 282 288 297 299 298 293 288 289 289 291 286 284 284 289 288 290 291 295 300 304 308 310 309 307 305 300 299 298 299 297 308 313 317 314 313 313 312
277 277 278 278 279 280 279 279 281 286 292 297 297 290 286 285 287 289 286 286 284 288 288 290 291 296 300 305 310 310 309 306 302 294 297 301 307 310 317 318 321 321 320 318 310
281 278 280 279 278 281 282 282 284 287 289 292 297 291 285 281 283 285 286 286 286 286 288 289 292 297 301 306 310 307 308 303 292 291 302 307 314 321 322 324 327 326 323 315 302
278 277 277 281 280 281 281 282 286 288 289 289 290 290 284 278 278 279 284 283 286 285 286 289 292 297 300 308 311 311 310 304 295 300 308 314 321 327 327 329 330 329 322 306 302
279 280 281 281 280 281 281 279 283 285 287 283 278 286 289 276 274 275 277 283 284 283 286 288 290 296 301 309 312 311 309 307 296 304 310 318 326 330 329 331 331 329 319 303 299
276 276 279 283 286 288 286 285 287 288 284 281 277 277 277 277 272 270 273 279 279 282 285 288 291 296 303 309 313 312 311 309 297 305 314 318 329 329 332 332 332 327 317 307 303
273 271 273 277 281 286 288 289 290 291 288 280 279 285 273 271 274 270 270 271 277 281 283 287 291 297 305 310 312 314 314 310 304 307 315 320 327 331 334 332 334 329 319 306 307
273 275 275 274 280 281 281 282 283 287 289 286 278 278 272 266 270 268 262 267 276 280 284 287 290 297 305 311 313 315 315 313 306 310 318 323 327 331 334 335 338 329 324 308 311
273 275 277 276 280 280 279 278 278 280 286 289 286 278 269 263 262 263 266 268 275 282 286 288 292 300 308 313 313 317 318 315 307 314 318 325 327 333 336 337 338 330 326 316 317
281 283 284 284 284 282 278 276 273 272 277 281 281 277 269 267 266 265 265 266 278 283 286 287 294 301 311 314 316 318 320 312 312 314 322 329 332 336 338 337 339 329 327 321 323
285 289 291 288 281 276 273 275 273 269 272 274 275 277 271 269 274 266 261 270 280 283 283 287 296 302 312 314 316 322 320 318 317 320 329 333 333 338 339 337 340 330 329 325 334
283 287 290 290 283 281 268 266 264 265 262 266 266 266 263 259 263 260 263 275 280 281 283 285 293 304 312 316 320 327 324 326 324 322 324 333 335 341 340 340 341 339 335 333 354
278 288 293 298 289 279 275 267 257 260 263 265 268 267 267 265 265 261 262 271 277 279 280 285 296 306 314 319 324 327 325 327 325 322 325 336 339 345 344 346 352 354 350 353 11
274 282 292 292 292 297 278 272 266 259 258 264 270 271 268 267 261 254 259 272 277 276 277 285 296 306 316 320 325 324 325 330 333 330 332 337 343 350 353 360 16 3 7 21 19
272 278 282 284 290 288 299 293 282 276 261 264 265 271 270 265 259 258 262 271 278 276 275 285 297 310 316 323 326 324 327 330 330 334 331 335 350 357 9 24 13 13 18 36 27
272 273 273 278 290 291 282 302 294 296 256 253 263 265 278 268 259 254 259 267 274 271 270 283 300 310 318 325 328 326 329 330 333 340 336 338 358 11 29 36 30 26 35 33 36
269 273 272 274 281 287 292 283 308 307 287 265 266 265 272 271 265 253 256 260 268 265 267 282 302 312 319 326 332 329 333 335 343 342 342 346 2 16 39 40 41 35 36 39 39
267 266 269 271 274 281 287 289 289 296 296 284 273 264 269 272 266 257 252 259 263 263 265 276 301 313 322 333 333 336 339 345 348 348 353 351 12 20 48 37 47 43 43 44 48
262 263 262 268 273 276 282 289 291 280 294 306 283 270 271 274 269 257 250 254 260 259 258 277 299 313 321 333 335 341 346 354 350 355 359 358 16 27 53 51 57 56 55 49 48
261 261 261 264 267 270 274 284 292 290 286 302 298 280 272 279 274 263 250 254 258 249 248 273 292 315 319 333 340 346 354 358 3 13 14 4 21 39 57 61 60 69 56 46 48
258 258 257 259 261 264 268 274 279 286 287 287 291 284 277 278 275 268 251 253 246 243 241 266 284 312 318 331 350 355 12 12 27 36 27 28 39 57 57 63 50 44 54 63 61
Height
5784 5781 5780 5777 5776 5775 5774 5773 5770 5769 5768 5766 5765 5762 5760 5757 5756 5755 5753 5751 5750 5749 5747 5746 5744 5742 5741 5739 5737 5735 5733 5731 5728 5725 5722 5719 5714 5710 5708 5704 5701 5698 5695 5689 5690
5780 5778 5777 5776 5773 5772 5770 5769 5768 5766 5764 5763 5761 5760 5757 5755 5753 5751 5749 5747 5746 5745 5743 5742 5740 5738 5736 5734 5732 5730 5727 5723 5719 5715 5711 5706 5702 5698 5695 5692 5690 5687 5682 5678 5676
5775 5774 5774 5772 5770 5768 5767 5766 5764 5763 5760 5758 5757 5756 5754 5751 5750 5747 5745 5743 5742 5740 5739 5737 5735 5733 5731 5728 5725 5723 5719 5715 5711 5706 5701 5697 5693 5689 5684 5681 5677 5674 5670 5665 5660
5771 5769 5769 5768 5766 5764 5763 5761 5760 5758 5757 5755 5752 5751 5749 5747 5748 5743 5741 5739 5736 5736 5734 5732 5730 5727 5725 5722 5719 5716 5712 5707 5703 5698 5693 5687 5683 5678 5673 5668 5662 5656 5651 5646 5641
5765 5764 5763 5762 5761 5760 5758 5757 5756 5754 5752 5750 5748 5746 5744 5742 5741 5738 5736 5734 5732 5730 5729 5726 5724 5722 5719 5716 5713 5709 5705 5699 5694 5688 5684 5679 5674 5667 5663 5656 5652 5644 5636 5628 5619
5760 5759 5758 5756 5755 5754 5753 5752 5751 5749 5747 5745 5743 5742 5740 5738 5735 5733 5731 5729 5727 5725 5723 5720 5718 5716 5713 5710 5707 5702 5697 5691 5686 5680 5675 5670 5666 5659 5652 5646 5640 5631 5622 5611 5599
5754 5753 5752 5751 5749 5748 5747 5746 5745 5743 5742 5740 5738 5736 5735 5733 5730 5727 5726 5723 5721 5720 5718 5715 5712 5710 5707 5703 5700 5696 5690 5684 5679 5673 5666 5662 5657 5651 5644 5636 5626 5615 5602 5588 5572
5747 5747 5746 5744 5743 5743 5741 5740 5739 5737 5735 5734 5732 5730 5729 5727 5724 5722 5720 5718 5716 5714 5712 5709 5706 5703 5700 5697 5693 5688 5683 5675 5669 5665 5658 5653 5647 5638 5632 5621 5610 5597 5583 5567 5550
5740 5739 5738 5737 5736 5736 5735 5733 5732 5731 5729 5727 5726 5723 5722 5721 5719 5717 5715 5712 5711 5708 5706 5703 5700 5697 5694 5690 5686 5681 5676 5668 5661 5656 5650 5643 5637 5628 5619 5606 5593 5580 5564 5548 5535
5732 5731 5730 5730 5728 5727 5726 5725 5724 5723 5722 5721 5719 5717 5715 5715 5713 5711 5709 5706 5704 5702 5700 5697 5694 5690 5687 5684 5679 5672 5667 5661 5653 5646 5640 5632 5626 5616 5605 5591 5578 5563 5547 5534 5524
5722 5722 5721 5720 5720 5719 5718 5717 5716 5715 5713 5713 5712 5710 5707 5707 5706 5704 5702 5700 5698 5696 5693 5690 5688 5684 5681 5677 5672 5665 5658 5651 5645 5639 5632 5624 5616 5605 5592 5578 5563 5548 5533 5522 5513
5714 5713 5713 5711 5711 5710 5708 5707 5705 5705 5705 5703 5701 5701 5700 5698 5698 5697 5695 5694 5691 5689 5687 5685 5681 5677 5674 5670 5664 5657 5650 5644 5636 5630 5622 5615 5607 5594 5580 5565 5551 5536 5522 5513 5504
5706 5705 5704 5704 5703 5702 5701 5698 5696 5695 5694 5696 5693 5692 5691 5691 5690 5689 5688 5686 5685 5683 5680 5678 5675 5671 5668 5663 5658 5650 5642 5635 5628 5621 5614 5605 5598 5584 5570 5555 5540 5526 5514 5505 5497
5699 5698 5697 5696 5696 5694 5693 5691 5688 5687 5685 5688 5686 5685 5683 5682 5683 5681 5679 5680 5679 5677 5674 5672 5669 5665 5662 5657 5650 5643 5635 5627 5619 5614 5606 5597 5587 5574 5559 5545 5531 5517 5506 5498 5490
5690 5688 5688 5686 5685 5685 5685 5683 5682 5680 5677 5679 5677 5677 5675 5676 5676 5674 5673 5673 5672 5671 5669 5667 5663 5659 5655 5650 5643 5636 5626 5619 5612 5607 5601 5590 5578 5564 5550 5535 5523 5510 5499 5492 5484
5680 5679 5677 5676 5675 5674 5674 5675 5674 5674 5670 5671 5671 5670 5670 5669 5668 5668 5667 5667 5666 5664 5662 5660 5657 5654 5650 5644 5637 5630 5621 5612 5606 5601 5594 5583 5572 5558 5542 5530 5516 5502 5493 5488 5480
5672 5671 5670 5668 5667 5664 5665 5667 5667 5665 5665 5665 5664 5663 5663 5662 5661 5660 5661 5661 5660 5658 5656 5654 5652 5648 5645 5639 5632 5624 5615 5606 5600 5592 5586 5578 5567 5556 5540 5526 5511 5498 5490 5485 5478
5666 5665 5664 5662 5659 5657 5658 5660 5657 5658 5657 5657 5656 5656 5655 5655 5654 5654 5655 5655 5653 5652 5650 5648 5648 5643 5640 5634 5626 5619 5611 5603 5593 5587 5582 5575 5564 5552 5538 5522 5508 5495 5489 5485 5479
5660 5660 5658 5656 5652 5650 5650 5648 5648 5650 5650 5650 5649 5647 5648 5647 5648 5647 5648 5648 5647 5646 5645 5642 5642 5638 5634 5628 5623 5615 5608 5602 5592 5584 5575 5571 5560 5549 5534 5519 5505 5498 5491 5487 5483
5653 5653 5651 5649 5646 5643 5642 5641 5639 5641 5642 5642 5641 5640 5639 5640 5641 5641 5642 5642 5641 5640 5638 5638 5637 5635 5630 5625 5619 5612 5605 5597 5589 5578 5568 5565 5556 5544 5533 5521 5509 5502 5495 5490 5486
5647 5646 5644 5643 5640 5638 5636 5635 5633 5632 5633 5633 5633 5633 5632 5632 5633 5634 5636 5636 5635 5634 5634 5633 5633 5632 5626 5621 5614 5608 5602 5594 5586 5578 5569 5559 5555 5545 5535 5525 5515 5506 5500 5495 5490
5639 5638 5637 5635 5636 5632 5632 5630 5629 5627 5625 5624 5625 5627 5627 5626 5627 5627 5629 5630 5630 5629 5629 5629 5628 5626 5624 5618 5611 5605 5598 5591 5583 5575 5570 5562 5555 5545 5537 5528 5520 5512 5506 5500 5495
5631 5630 5630 5629 5629 5628 5626 5625 5625 5622 5620 5620 5620 5621 5621 5621 5621 5621 5623 5624 5624 5624 5625 5626 5625 5623 5620 5617 5610 5603 5596 5589 5581 5575 5569 5561 5553 5546 5540 5532 5526 5519 5512 5507 5500
5623 5623 5624 5622 5623 5622 5622 5621 5619 5618 5616 5614 5614 5614 5616 5615 5615 5615 5617 5618 5619 5619 5620 5621 5621 5619 5616 5610 5605 5599 5593 5586 5580 5574 5568 5562 5555 5548 5543 5537 5531 5525 5519 5513 5507
5615 5616 5617 5617 5617 5616 5616 5616 5615 5614 5612 5611 5610 5610 5610 5611 5609 5609 5611 5612 5613 5614 5615 5618 5618 5617 5612 5608 5603 5597 5591 5586 5580 5575 5569 5562 5556 5551 5547 5542 5535 5531 5525 5519 5513
5606 5607 5609 5610 5610 5610 5610 5610 5610 5608 5608 5607 5606 5606 5606 5605 5604 5604 5605 5607 5608 5609 5611 5613 5615 5613 5611 5606 5602 5597 5591 5586 5581 5576 5570 5564 5558 5554 5550 5546 5541 5536 5530 5526 5520
5596 5598 5600 5602 5602 5603 5604 5604 5605 5605 5603 5602 5600 5600 5600 5600 5599 5598 5599 5601 5603 5604 5607 5609 5610 5610 5609 5605 5601 5597 5591 5587 5583 5578 5573 5567 5562 5558 5555 5551 5546 5540 5535 5532 5528